STARLINK-6298, 56391

Orbit data source: Space-Track

STARLINK-6298, 56391 is a payload satellite owned by SpaceX/Seattle (US) in LEO that was launched on Thu, 04 May 2023 UTC via an FALCON 9 launch vehicle from the Air Force Eastern Test Range (AFETR). Payload-class satellites include a variety of spacecraft equipped with specific instruments for various scientific and technological missions. These include communications satellites like Starlink; space stations such as the ISS; scientific satellites like the Hubble; Earth observation satellites from companies like Planet Labs, Umbra, and HawkEye 360; GPS; miniature CubeSats for education and research; and military/defense satellites.

Loading next visibility...
Identifier
56391, 2023-061T
Orbit
LEO
Country
Flag of USUS
Related business
Manufacturer
SpaceX/Seattle
Mission
Operational Commercial Communications
Bus & Motor
STARLINK, Unknown motor
Mass
305 kg wet, ~290 kg dry
Launch date (UTC)
2023-05-04 (3 years ago)
Launch vehicle
FALCON 9
Launch site
Air Force Eastern Test Range (AFETR)
Object type
Payload
Rocket body
Debris
Shape & HBR
Box + 1 Pan, 10.1 m
Radar Cross Section
11.087 m², Large (>1 m²)

Expand to show TLE details & history
Last TLE update: 2 days ago

TLE from 2 days ago
0 STARLINK-6298
1 56391U 23061T   26171.15566537  .00000321  00000-0  21174-4 0  9996
2 56391  43.0047 338.9522 0000932 265.9654  94.1091 15.27576308172421
Epoch: 2026-06-20T03:44Z
TLE epoch observation values (Epoch: 2026-06-20T03:44:09.487Z)
Latitude
-0.00005°
Longitude
14.53827°
Altitude
482.882 km
Speed
7.626 km/s
True Right ascension
22h 35m 48s
True Declination
0° 00' 00"
Sunlit
Object was in daylight at epoch
Visualization orbit readout
Latitude
Unknown
Longitude
Unknown
Altitude
Unknown
Speed
Unknown
Apparent Right ascension
Unknown
Apparent Declination
Unknown
Sunlit
N/A
Visualization observer readout
Local Sidereal Time
21:31:02
Azimuth
Unknown
Elevation
Unknown
Doppler factor
Unknown
Orbital elements
Apogee altitude
485.644 km
Perigee altitude
484.365 km
Semi-major axis
6,863.142 km
Eccentricity
0.00009
Inclination
43.0047°
RAAN
338.9522°
Arg. of periapsis
265.9654°
True anomaly
94.11975°
Mean anomaly
94.1091°
Eccentric anomaly
94.11443°
Mean motion
3.81732 °/min
Orbital period
94.31 mins
BSTAR
0.000021174
Loading maneuver chart data...
Computing Atmospheric mass density...
Loading historical data...
Loading historical data...
Loading historical data...
Loading historical data...
Loading historical data...
Loading historical data...
Loading historical data...

Documentation

Showing up to 5 results
|